timestamp,surface_pressure_avg,surface_temp_avg,battery_voltage,lat,long
2018-11-21 00:00:00+00:00,309.1063,4.9,12.81,47.84626,-54.09684
2018-11-21 00:10:00+00:00,307.253,4.9,12.73,47.84626,-54.09684
2018-11-21 00:20:00+00:00,300.5314,4.85,12.81,47.84626,-54.09684
2018-11-21 00:30:00+00:00,288.8397,4.8,12.81,47.84626,-54.09684
2018-11-21 00:40:00+00:00,284.3814,4.8,12.81,47.84626,-54.09684
2018-11-21 00:50:00+00:00,282.968,4.9,12.89,47.84626,-54.09684
2018-11-21 01:00:00+00:00,270.8898,4.81,12.81,47.84626,-54.09684
2018-11-21 01:10:00+00:00,256.7431,4.89,12.73,47.84626,-54.09684
2018-11-21 01:20:00+00:00,257.1481,5.07,12.81,47.84626,-54.09684
2018-11-21 01:30:00+00:00,253.4431,5.09,12.81,47.84626,-54.09684
2018-11-21 01:40:00+00:00,241.8981,4.9,12.81,47.84626,-54.09684
2018-11-21 01:50:00+00:00,237.2047,4.95,12.89,47.84626,-54.09684
2018-11-21 02:00:00+00:00,235.9181,5.14,12.81,47.84626,-54.09684
2018-11-21 02:10:00+00:00,226.7331,5.19,12.73,47.84626,-54.09684
2018-11-21 02:20:00+00:00,216.9131,5.1,12.81,47.84626,-54.09684
2018-11-21 02:30:00+00:00,218.2014,5.1,12.81,47.84626,-54.09684
2018-11-21 02:40:00+00:00,219.4498,5.1,12.81,47.84626,-54.09684
2018-11-21 02:50:00+00:00,212.8131,5.1,12.81,47.84626,-54.09684
2018-11-21 03:00:00+00:00,206.9398,5.03,12.81,47.84626,-54.09684
2018-11-21 03:10:00+00:00,208.0164,5.08,12.73,47.84626,-54.09684
2018-11-21 03:20:00+00:00,211.2314,5.0,12.81,47.84626,-54.09684
2018-11-21 03:30:00+00:00,211.2314,4.8,12.81,47.84626,-54.09684
2018-11-21 03:40:00+00:00,211.0148,4.8,12.81,47.84626,-54.09684
2018-11-21 03:50:00+00:00,211.4998,4.9,12.89,47.84626,-54.09684
2018-11-21 04:00:00+00:00,210.9498,4.89,12.81,47.84626,-54.09684
2018-11-21 04:10:00+00:00,212.9231,4.9,12.73,47.84626,-54.09684
2018-11-21 04:20:00+00:00,218.0964,5.06,12.81,47.84626,-54.09684
2018-11-21 04:30:00+00:00,218.0881,5.09,12.81,47.84626,-54.09684
2018-11-21 04:40:00+00:00,220.3531,5.03,12.81,47.84626,-54.09684
2018-11-21 04:50:00+00:00,227.563,5.0,12.81,47.84626,-54.09684
2018-11-21 05:00:00+00:00,234.2897,5.03,12.81,47.84626,-54.09684
2018-11-21 05:10:00+00:00,236.7897,5.11,12.73,47.84626,-54.09684
2018-11-21 05:20:00+00:00,241.0997,5.2,12.81,47.84626,-54.09684
2018-11-21 05:30:00+00:00,241.703,5.2,12.81,47.84626,-54.09684
2018-11-21 05:40:00+00:00,242.0648,5.2,12.81,47.84626,-54.09684
2018-11-21 05:50:00+00:00,249.3898,5.07,12.81,47.84626,-54.09684
2018-11-21 06:00:00+00:00,266.4897,5.4,12.81,47.84626,-54.09684
2018-11-21 06:10:00+00:00,267.6581,5.38,12.73,47.84626,-54.09684
2018-11-21 06:20:00+00:00,265.7464,5.3,12.81,47.84626,-54.09684
2018-11-21 06:30:00+00:00,274.948,5.4,12.81,47.84626,-54.09684
2018-11-21 06:40:00+00:00,297.1846,5.3,12.81,47.84626,-54.09684
2018-11-21 06:50:00+00:00,297.743,5.3,12.81,47.84626,-54.09684
2018-11-21 07:00:00+00:00,295.643,5.22,12.81,47.84626,-54.09684
2018-11-21 07:10:00+00:00,299.863,5.28,12.73,47.84626,-54.09684
2018-11-21 07:20:00+00:00,313.6946,5.29,12.81,47.84626,-54.09684
2018-11-21 07:30:00+00:00,309.5647,5.27,12.81,47.84626,-54.09684
2018-11-21 07:40:00+00:00,309.718,5.3,12.81,47.84626,-54.09684
2018-11-21 07:50:00+00:00,321.2997,5.3,12.81,47.84626,-54.09684
2018-11-21 08:00:00+00:00,335.153,5.3,12.81,47.84626,-54.09684
2018-11-21 08:10:00+00:00,336.1597,5.26,12.73,47.84626,-54.09684
2018-11-21 08:20:00+00:00,349.2262,5.27,12.81,47.84626,-54.09684
2018-11-21 08:30:00+00:00,358.9864,5.3,12.81,47.84626,-54.09684
2018-11-21 08:40:00+00:00,362.0729,5.24,12.81,47.84626,-54.09684
2018-11-21 08:50:00+00:00,361.1312,5.21,12.81,47.84626,-54.09684
2018-11-21 09:00:00+00:00,365.8879,5.3,12.81,47.84626,-54.09684
2018-11-21 09:10:00+00:00,370.9178,5.3,12.73,47.84626,-54.09684
2018-11-21 09:20:00+00:00,370.5462,5.3,12.81,47.84626,-54.09684
2018-11-21 09:30:00+00:00,374.9645,5.28,12.81,47.84626,-54.09684
2018-11-21 09:40:00+00:00,378.6112,5.34,12.81,47.84626,-54.09684
2018-11-21 09:50:00+00:00,387.4596,5.7,12.81,47.84626,-54.09684
2018-11-21 10:00:00+00:00,393.6896,5.5,12.81,47.84626,-54.09684
2018-11-21 10:10:00+00:00,393.6979,5.4,12.73,47.84626,-54.09684
2018-11-21 10:20:00+00:00,391.5295,5.7,12.81,47.84626,-54.09684
2018-11-21 10:30:00+00:00,391.2262,5.6,12.81,47.84626,-54.09684
2018-11-21 10:40:00+00:00,391.6913,5.6,12.81,47.84626,-54.09684
2018-11-21 10:50:00+00:00,390.7479,5.54,12.81,47.84626,-54.09684
2018-11-21 11:00:00+00:00,382.0729,5.57,12.81,47.84626,-54.09684
2018-11-21 11:10:00+00:00,380.2896,5.58,12.73,47.84626,-54.09684
2018-11-21 11:20:00+00:00,381.7246,5.58,12.81,47.84626,-54.09684
2018-11-21 11:30:00+00:00,372.4313,5.49,12.81,47.84626,-54.09684
2018-11-21 11:40:00+00:00,366.0796,5.44,12.81,47.84626,-54.09684
2018-11-21 11:50:00+00:00,368.3579,5.44,12.81,47.84626,-54.09684
2018-11-21 12:00:00+00:00,367.4813,5.4,12.81,47.84626,-54.09684
2018-11-21 12:10:00+00:00,357.9796,5.4,12.73,47.84626,-54.09684
2018-11-21 12:20:00+00:00,354.3046,5.4,12.81,47.84626,-54.09684
2018-11-21 12:30:00+00:00,352.6363,5.3,12.81,47.84626,-54.09684
2018-11-21 12:40:00+00:00,340.3247,5.3,12.81,47.84626,-54.09684
2018-11-21 12:50:00+00:00,328.8113,5.2,12.81,47.84626,-54.09684
2018-11-21 13:00:00+00:00,331.2363,5.22,12.81,47.84626,-54.09684
2018-11-21 13:10:00+00:00,327.6397,5.2,12.73,47.84626,-54.09684
2018-11-21 13:20:00+00:00,309.4514,5.1,12.81,47.84626,-54.09684
2018-11-21 13:30:00+00:00,295.7164,5.08,12.81,47.84626,-54.09684
2018-11-21 13:40:00+00:00,295.2247,5.19,12.81,47.84626,-54.09684
2018-11-21 13:50:00+00:00,287.9813,5.54,12.81,47.84626,-54.09684
2018-11-21 14:00:00+00:00,278.853,5.8,12.81,47.84626,-54.09684
2018-11-21 14:10:00+00:00,273.8615,5.8,12.73,47.84626,-54.09684
2018-11-21 14:20:00+00:00,273.0631,5.78,12.81,47.84626,-54.09684
2018-11-21 14:30:00+00:00,266.4081,5.75,12.81,47.84626,-54.09684
2018-11-21 14:40:00+00:00,266.9197,5.7,12.81,47.84626,-54.09684
2018-11-21 14:50:00+00:00,261.2398,5.7,12.81,47.84626,-54.09684
2018-11-21 15:00:00+00:00,253.9448,5.6,12.81,47.84626,-54.09684
2018-11-21 15:10:00+00:00,240.7914,5.57,12.73,47.84626,-54.09684
2018-11-21 15:20:00+00:00,233.6081,5.6,12.89,47.84626,-54.09684
2018-11-21 15:30:00+00:00,229.8014,5.65,12.89,47.84626,-54.09684
2018-11-21 15:40:00+00:00,228.963,5.68,12.89,47.84626,-54.09684
2018-11-21 15:50:00+00:00,229.6664,5.7,12.97,47.84626,-54.09684
2018-11-21 16:00:00+00:00,229.9797,5.7,12.89,47.84626,-54.09684
2018-11-21 16:10:00+00:00,228.1631,5.66,12.81,47.84626,-54.09684
2018-11-21 16:20:00+00:00,228.2998,5.6,12.89,47.84626,-54.09684
2018-11-21 16:30:00+00:00,233.6814,5.6,12.81,47.84626,-54.09684
2018-11-21 16:40:00+00:00,234.1864,5.65,12.97,47.84626,-54.09684
2018-11-21 16:50:00+00:00,227.2714,5.6,12.97,47.84626,-54.09684
2018-11-21 17:00:00+00:00,226.1598,5.6,13.05,47.84626,-54.09684
2018-11-21 17:10:00+00:00,237.4964,5.6,13.13,47.84626,-54.09684
2018-11-21 17:20:00+00:00,237.0664,5.59,13.21,47.84626,-54.09684
2018-11-21 17:30:00+00:00,227.2081,5.5,13.13,47.84626,-54.09684
2018-11-21 17:40:00+00:00,229.0548,5.5,13.13,47.84626,-54.09684
2018-11-21 17:50:00+00:00,239.2248,5.59,13.13,47.84626,-54.09684
2018-11-21 18:00:00+00:00,251.4714,5.62,13.13,47.84626,-54.09684
2018-11-21 18:10:00+00:00,258.7831,5.7,12.97,47.84626,-54.09684
2018-11-21 18:20:00+00:00,259.8481,5.7,13.05,47.84626,-54.09684
2018-11-21 18:30:00+00:00,266.9248,5.7,13.05,47.84626,-54.09684
2018-11-21 18:40:00+00:00,273.8098,5.7,13.05,47.84626,-54.09684
2018-11-21 18:50:00+00:00,275.6547,5.7,13.05,47.84626,-54.09684
2018-11-21 19:00:00+00:00,275.8113,5.78,12.97,47.84626,-54.09684
2018-11-21 19:10:00+00:00,287.438,5.8,12.81,47.84626,-54.09684
2018-11-21 19:20:00+00:00,293.2964,5.87,12.89,47.84626,-54.09684
2018-11-21 19:30:00+00:00,287.9631,6.06,12.89,47.84626,-54.09684
2018-11-21 19:40:00+00:00,290.603,6.1,12.89,47.84626,-54.09684
2018-11-21 19:50:00+00:00,304.3513,6.0,12.89,47.84626,-54.09684
2018-11-21 20:00:00+00:00,309.783,6.09,12.81,47.84626,-54.09684
2018-11-21 20:10:00+00:00,310.173,6.09,12.73,47.84626,-54.09684
2018-11-21 20:20:00+00:00,316.638,6.1,12.81,47.84626,-54.09684
2018-11-21 20:30:00+00:00,328.8513,6.19,12.81,47.84626,-54.09684
2018-11-21 20:40:00+00:00,334.973,6.13,12.89,47.84626,-54.09684
2018-11-21 20:50:00+00:00,336.0063,6.09,12.89,47.84626,-54.09684
2018-11-21 21:00:00+00:00,343.0612,6.06,12.81,47.84626,-54.09684
2018-11-21 21:10:00+00:00,351.368,6.07,12.73,47.84626,-54.09684
2018-11-21 21:20:00+00:00,357.2629,6.0,12.81,47.84626,-54.09684
2018-11-21 21:30:00+00:00,360.0813,6.0,12.81,47.84626,-54.09684
2018-11-21 21:40:00+00:00,361.0379,6.0,12.81,47.84626,-54.09684
2018-11-21 21:50:00+00:00,353.8379,6.0,12.89,47.84626,-54.09684
2018-11-21 22:00:00+00:00,354.2096,6.0,12.81,47.84626,-54.09684
2018-11-21 22:10:00+00:00,363.7445,5.99,12.73,47.84626,-54.09684
2018-11-21 22:20:00+00:00,364.7662,5.9,12.81,47.84626,-54.09684
2018-11-21 22:30:00+00:00,360.8297,5.9,12.81,47.84626,-54.09684
2018-11-21 22:40:00+00:00,363.6163,5.9,12.81,47.84626,-54.09684
2018-11-21 22:50:00+00:00,363.553,5.89,12.81,47.84626,-54.09684
2018-11-21 23:00:00+00:00,359.6963,5.89,12.81,47.84626,-54.09684
2018-11-21 23:10:00+00:00,358.7896,5.98,12.73,47.84626,-54.09684
2018-11-21 23:20:00+00:00,354.608,6.09,12.81,47.84626,-54.09684
2018-11-21 23:30:00+00:00,346.2746,6.02,12.81,47.84626,-54.09684
2018-11-21 23:40:00+00:00,342.9113,6.0,12.81,47.84626,-54.09684
2018-11-21 23:50:00+00:00,341.5496,6.0,12.81,47.84626,-54.09684
